GFSSGP_250_rhum_273.txt.gz
RH
59 51 40 52 70 78 93 40 48 63 52 19 34 18 13 9 16 33 23 9 41 64 48 48 52 82 100 54 37 46 27 25 33 36 49 80 84 97 100 95 83 61 57 48 47 65 70 56 72
20 18 38 98 74 84 95 68 61 58 50 17 21 16 10 16 8 26 37 18 20 59 56 47 51 58 100 71 38 37 20 26 31 32 58 85 100 100 100 100 100 98 100 75 63 62 62 59 45
20 25 22 33 41 50 38 52 71 75 28 16 20 24 9 9 8 10 34 20 9 27 61 52 48 52 73 80 69 34 24 24 26 24 52 54 64 88 88 100 97 85 88 98 98 75 61 64 75
12 14 22 27 31 25 30 39 57 26 11 9 10 21 9 9 8 8 30 25 19 10 40 64 54 58 69 89 76 40 31 20 26 27 34 35 43 60 50 58 51 67 90 95 84 85 97 79 59
7 11 22 14 22 21 20 18 17 12 10 8 9 12 8 9 8 8 28 37 43 28 21 57 49 54 66 75 65 55 37 36 28 33 33 33 43 38 50 66 74 49 71 98 71 97 91 100 100
8 46 8 8 7 10 15 10 10 7 8 7 8 8 8 8 9 8 13 51 44 49 28 22 42 43 60 74 51 68 42 32 36 25 29 34 42 39 43 39 54 68 62 65 54 51 86 100 87
8 24 7 7 6 6 8 10 11 8 8 8 9 9 8 8 9 9 8 24 61 71 50 20 28 45 58 66 60 62 47 20 24 37 23 31 32 41 31 36 48 53 59 36 48 36 48 62 78
8 8 6 14 10 16 7 8 8 8 8 8 9 10 10 9 10 9 9 9 36 64 87 14 17 46 56 63 90 82 71 27 22 31 75 66 77 61 33 44 50 56 53 40 39 41 29 46 69
7 30 12 6 11 9 8 32 8 7 8 8 9 9 10 10 10 9 9 8 11 22 87 16 8 27 50 57 94 92 100 84 22 20 56 97 100 89 80 48 55 74 65 42 48 54 55 49 58
7 63 29 8 9 9 10 11 8 18 13 10 9 9 9 10 11 9 9 9 9 10 94 21 8 10 42 51 74 100 88 100 76 19 52 92 100 97 88 54 39 60 62 52 53 63 67 64 62
6 6 15 13 10 9 9 11 10 10 19 13 9 10 9 10 10 9 9 9 13 8 80 78 8 9 31 52 76 100 78 95 82 47 25 36 81 84 65 62 37 45 47 68 97 77 74 87 48
7 6 6 6 8 9 9 9 10 9 11 10 9 8 9 10 9 8 8 8 12 15 62 94 25 10 19 55 78 59 54 85 92 70 47 29 14 15 23 28 32 39 54 56 46 97 86 95 57
6 6 6 7 7 8 9 9 9 10 11 10 9 9 9 9 8 7 7 7 8 8 11 64 60 10 18 51 74 75 51 54 70 79 64 56 33 15 22 23 31 34 32 33 33 86 100 99 96
6 5 5 6 6 7 8 9 9 13 11 10 9 9 9 9 7 7 7 7 7 7 7 45 54 11 12 43 67 68 53 46 54 49 61 42 48 32 20 28 28 32 40 40 43 75 79 100 100
6 7 7 6 7 7 8 8 12 11 10 10 10 10 9 7 7 7 7 7 7 7 6 26 94 50 12 43 75 64 58 46 40 50 51 48 70 60 40 34 41 52 49 49 42 93 100 100 100
8 8 8 8 8 8 10 10 12 27 12 10 9 8 7 7 7 6 6 6 6 8 7 23 100 89 48 20 74 80 62 52 45 45 37 42 84 96 98 100 99 95 92 57 94 100 100 99 100
11 10 9 9 9 8 9 11 13 23 10 10 8 7 7 8 7 6 5 5 5 6 7 14 100 88 88 33 56 75 72 65 65 63 36 36 75 100 100 100 100 77 42 56 100 82 100 100 100
13 12 11 10 10 10 12 12 13 11 10 8 7 8 8 7 6 5 5 4 5 5 6 7 79 93 77 74 35 60 72 64 65 56 44 42 69 60 94 100 100 100 49 55 100 100 73 100 100
13 12 12 12 11 10 10 12 11 10 9 8 9 9 8 6 6 5 5 5 5 5 6 7 39 95 80 100 48 46 68 65 61 44 44 56 75 55 63 100 100 100 100 100 95 73 52 94 100
10 11 12 12 12 11 10 10 11 10 10 11 10 9 8 6 5 5 6 6 6 5 6 13 52 98 85 62 93 33 56 55 54 39 45 38 43 34 35 60 94 100 100 82 41 70 75 96 83
8 9 10 11 11 11 10 10 10 10 10 11 10 9 7 6 5 6 6 6 6 6 6 9 25 86 94 71 72 75 35 48 44 39 42 43 39 30 29 40 60 91 100 72 39 77 93 100 100
9 8 9 10 9 10 10 9 12 11 10 8 9 8 7 6 5 6 5 6 7 7 7 7 22 72 100 84 79 85 90 33 37 37 98 82 44 42 40 37 46 59 100 98 90 97 53 71 100
12 10 10 9 9 8 9 9 8 10 10 8 8 7 6 5 5 6 6 7 7 8 7 7 10 38 98 97 68 69 88 88 41 33 39 74 53 99 83 61 40 46 74 80 84 86 43 88 93
10 13 12 9 8 9 9 9 13 8 8 8 7 6 6 5 5 5 5 5 7 6 8 7 9 9 25 61 73 59 93 88 84 36 23 26 88 100 100 100 97 64 51 52 96 96 78 99 89
11 12 12 10 9 10 10 10 10 9 8 8 7 6 6 6 6 6 6 6 5 6 7 9 10 10 8 9 23 56 60 96 100 100 77 49 99 100 100 100 99 86 44 60 64 98 100 88 100
10 10 12 11 10 11 12 10 10 9 8 8 7 7 7 8 7 7 6 6 4 4 5 6 7 10 11 18 28 21 44 52 80 100 100 89 99 99 100 88 79 50 100 96 64 85 68 67 100
11 11 13 13 11 12 30 11 10 9 8 7 7 7 7 8 8 8 7 7 7 7 6 7 6 7 8 17 47 30 46 58 53 70 100 90 52 97 100 60 98 55 97 91 77 90 66 96 100
10 12 12 16 15 15 16 12 10 10 8 8 8 8 8 8 8 8 8 8 8 9 10 8 7 7 8 9 10 43 70 69 75 73 90 97 82 80 92 70 66 56 65 80 88 88 90 100 78
10 12 14 19 17 14 14 12 10 10 9 9 9 8 7 8 9 8 8 7 8 10 8 10 11 19 20 11 9 10 9 39 84 91 74 84 70 65 77 89 98 98 99 88 94 76 96 98 75
10 12 13 17 21 18 15 14 11 12 11 10 9 8 8 9 9 8 9 9 10 9 7 14 24 29 28 18 16 8 16 12 14 82 100 92 82 67 67 75 98 100 100 99 80 38 51 53 70

GFSSGP_250_rhum_276.txt.gz
RH
24 33 62 84 97 86 78 96 42 36 44 14 20 18 96 94 7 22 23 17 30 50 54 46 51 100 60 40 38 20 28 32 72 70 100 100 100 100 100 93 76 59 57 59 75 92 93 100 100
26 14 42 39 47 52 97 83 22 41 35 17 30 17 50 37 20 10 20 24 10 47 57 55 43 53 84 38 25 21 27 37 51 73 100 100 100 100 100 100 100 88 55 59 76 56 39 33 37
9 8 55 23 100 19 19 25 27 22 30 20 8 11 30 7 18 10 17 36 26 24 36 52 44 55 80 67 24 20 22 26 34 43 51 70 81 91 72 79 86 71 73 76 63 75 54 60 73
8 52 51 54 13 17 23 22 16 12 18 14 16 14 7 8 15 8 13 42 47 36 44 40 37 54 70 62 33 20 16 20 23 26 30 43 49 58 44 69 100 81 98 100 100 100 100 73 75
66 100 98 68 8 7 10 18 9 8 14 9 8 9 9 9 8 8 8 36 55 50 48 33 33 50 68 70 38 29 20 18 18 19 22 31 38 28 48 50 84 61 48 72 68 68 62 69 62
8 22 22 11 8 8 8 12 12 13 13 14 10 9 12 9 8 9 8 9 40 56 58 26 25 39 62 72 64 25 28 34 18 21 19 29 36 38 39 44 57 54 45 37 62 91 76 62 40
6 27 97 16 8 6 17 19 14 17 22 10 17 15 10 9 8 8 8 10 11 45 69 35 18 38 54 65 73 40 17 21 19 45 22 24 28 38 46 45 58 42 32 34 34 60 61 54 47
5 20 98 50 89 42 14 20 16 24 75 62 12 17 13 9 8 8 8 9 14 12 37 44 10 30 60 95 97 90 54 17 25 60 56 63 66 46 48 42 40 35 37 37 38 44 49 55 54
6 49 94 81 96 65 15 16 9 48 100 100 90 24 12 8 8 7 9 8 10 9 25 68 8 18 51 91 100 100 100 46 18 38 68 94 91 78 48 47 39 43 38 50 57 48 41 45 64
5 94 99 99 43 7 14 8 23 27 77 100 92 13 10 9 8 8 8 9 8 10 10 100 8 10 39 64 100 87 82 91 20 30 74 98 95 61 74 36 41 32 43 89 66 84 46 48 68
6 12 11 28 8 7 6 68 86 64 64 98 17 10 10 9 9 8 8 7 8 11 14 91 52 8 24 56 100 86 84 98 42 19 53 100 49 75 56 34 34 33 44 60 68 74 88 63 76
10 7 8 7 6 6 5 94 94 61 17 20 10 10 10 10 10 9 7 7 7 7 30 31 99 9 10 47 100 99 82 98 69 52 22 30 51 55 22 25 27 28 36 42 52 100 100 97 96
8 8 7 8 6 5 5 4 4 59 100 97 18 8 10 10 9 9 7 7 7 7 7 7 72 18 8 37 90 69 72 61 91 63 49 27 14 15 18 20 25 26 28 31 66 88 100 100 93
7 7 7 6 6 5 5 5 6 82 100 60 30 9 8 8 8 7 7 7 7 7 8 7 58 15 10 26 84 82 51 57 66 55 50 42 26 19 23 28 29 32 42 32 63 100 97 100 100
8 8 6 7 6 6 7 6 41 100 100 85 76 10 8 7 7 7 6 6 7 7 8 8 45 38 22 15 63 79 56 59 50 75 57 62 55 35 37 41 56 79 72 46 100 100 100 96 100
10 9 8 8 7 6 7 7 8 100 100 93 32 9 7 6 7 7 6 6 6 6 7 7 30 92 44 14 44 57 54 54 42 62 46 58 83 91 76 98 100 98 66 95 99 100 100 100 100
10 11 10 9 9 9 8 8 8 51 25 52 13 7 7 8 7 6 5 5 5 5 6 7 34 100 64 24 28 50 45 38 39 44 36 49 70 100 100 100 100 47 74 100 96 100 100 100 100
12 12 10 10 11 10 10 9 8 7 8 38 8 7 9 8 8 5 5 4 5 5 5 7 15 100 89 63 29 46 45 38 43 34 28 41 64 64 100 100 100 85 98 100 100 100 85 100 100
10 10 9 9 11 11 11 11 10 8 7 7 8 10 10 9 7 5 5 4 5 5 5 6 7 83 100 83 65 41 52 47 46 41 29 31 72 65 97 100 100 100 100 100 89 100 79 100 100
9 8 8 8 8 9 10 10 10 10 8 9 9 10 10 9 7 5 5 6 6 6 6 6 7 23 100 96 89 56 49 51 60 41 32 33 44 59 53 97 80 97 92 100 50 71 98 99 88
9 8 8 7 7 7 8 8 9 10 9 9 10 7 8 8 6 6 5 6 6 6 6 6 6 8 80 100 78 78 46 56 59 49 40 33 36 36 33 47 70 85 100 100 74 40 77 100 92
11 10 10 9 8 8 7 7 10 10 12 13 8 8 7 7 6 6 6 6 6 6 6 6 8 36 68 99 89 66 100 82 86 46 47 45 38 30 26 34 39 56 82 87 85 95 71 99 98
12 10 9 9 9 7 8 8 8 13 24 12 8 7 7 6 7 6 6 6 6 6 7 7 8 16 28 90 98 91 93 77 71 46 46 63 48 40 30 34 36 44 60 73 69 99 99 50 72
10 10 10 10 9 10 9 8 8 100 96 54 8 7 7 6 6 6 6 6 6 6 7 8 8 8 16 60 100 94 100 98 100 59 41 47 74 47 75 87 58 57 46 45 54 87 100 97 72
10 9 8 9 9 12 11 9 9 13 32 11 8 7 7 6 6 6 6 7 7 7 6 6 9 8 8 9 52 99 100 92 99 100 100 60 57 54 41 79 94 100 64 83 69 47 63 100 100
11 11 11 10 11 13 13 12 8 12 12 10 7 7 7 6 6 6 6 6 7 7 7 7 7 7 10 9 9 25 81 79 83 100 100 100 76 27 38 66 100 100 99 100 66 53 86 78 100
13 11 11 9 10 12 13 14 31 30 38 19 7 7 7 7 6 6 6 7 6 8 7 7 6 6 6 7 8 8 8 40 64 75 100 100 100 75 44 88 100 100 100 100 86 97 100 83 71
12 12 9 10 11 12 12 16 100 100 74 23 8 8 8 7 6 6 7 8 8 8 7 8 6 6 6 6 6 6 9 9 20 60 79 96 100 100 99 100 100 100 100 67 81 92 100 82 82
11 11 11 11 11 12 13 16 41 76 64 15 8 7 7 7 7 6 8 8 8 8 9 9 8 7 10 9 8 8 6 9 17 27 51 79 77 84 96 99 78 100 95 68 65 70 75 100 98
11 12 13 11 12 12 13 22 100 38 20 17 11 9 8 7 8 7 10 9 9 9 9 9 15 14 15 21 24 18 16 13 7 17 24 52 75 74 89 99 80 84 84 76 53 53 67 100 77

GFSSGP_250_rhum_279.txt.gz
RH
43 81 100 97 88 40 35 99 16 8 13 22 30 35 45 24 24 7 18 38 23 35 29 51 51 77 25 22 22 46 60 96 100 95 100 82 100 97 66 64 60 62 83 79 94 100 96 98 97
67 92 100 99 97 20 10 12 11 11 14 16 14 40 13 22 9 8 11 41 36 36 36 47 51 84 48 19 24 36 56 69 75 98 99 91 89 98 96 78 63 88 66 54 42 51 59 40 41
83 100 99 100 54 17 23 8 66 18 23 10 11 15 26 18 8 8 9 37 45 45 48 38 45 79 50 20 22 32 27 44 52 65 59 54 61 76 71 92 98 94 98 66 62 62 69 50 60
37 80 83 98 85 24 9 14 9 12 17 18 14 19 26 20 11 7 13 16 43 54 62 26 43 70 62 27 18 18 20 27 32 40 37 39 46 78 68 76 72 64 92 99 70 69 71 51 88
9 7 26 88 96 22 8 8 9 10 15 28 50 57 52 18 9 8 13 12 15 45 61 18 37 65 68 32 23 16 18 18 18 27 32 31 39 62 66 42 41 54 64 64 53 52 51 39 49
5 6 54 93 94 92 47 32 12 19 26 19 97 98 63 15 10 8 16 9 10 32 45 18 32 58 75 43 28 24 18 17 18 20 26 25 28 42 60 48 54 38 58 65 58 47 43 49 46
7 7 97 92 93 96 84 70 48 19 15 37 100 98 76 35 9 9 8 12 19 28 30 40 26 48 68 68 42 23 21 18 16 29 22 30 34 42 50 40 32 34 41 40 40 39 42 57 48
7 7 15 56 62 85 72 34 14 28 66 80 100 100 96 26 9 9 9 61 19 42 16 95 14 44 78 100 90 48 18 18 46 47 56 61 31 32 31 32 35 41 39 36 39 50 49 53 48
6 7 11 14 50 47 41 44 23 100 82 88 100 100 79 20 8 8 9 9 28 11 12 63 14 34 74 100 100 100 100 20 28 60 77 91 76 45 36 56 36 53 53 49 39 54 70 52 61
5 8 14 15 11 31 8 37 50 100 100 100 100 98 53 12 8 8 8 7 8 8 11 31 66 16 51 82 100 89 100 24 19 44 67 100 100 92 46 54 52 70 71 63 78 52 88 85 72
6 16 40 25 8 8 8 7 5 32 98 100 93 94 54 8 7 9 10 7 7 6 14 17 98 11 35 64 96 92 100 45 19 50 78 58 77 90 35 41 47 40 69 60 100 100 98 96 100
8 10 10 9 9 8 5 5 4 17 100 100 100 100 54 8 8 8 22 8 7 7 8 17 30 70 17 56 100 67 100 58 26 37 72 30 42 34 40 31 29 39 38 75 100 100 100 99 97
7 7 7 6 6 6 5 5 4 41 99 100 100 94 60 12 7 7 21 9 20 7 6 7 12 73 10 39 97 80 85 91 68 35 31 39 27 21 18 21 25 27 31 65 100 100 74 93 88
7 8 8 7 6 6 5 6 4 99 98 84 98 100 66 14 6 6 24 29 23 8 6 6 22 51 15 27 68 46 68 78 64 56 42 19 15 19 22 26 28 32 31 90 100 100 93 97 73
8 8 8 8 6 5 5 7 4 87 100 96 100 100 88 24 6 8 12 6 6 18 7 8 17 50 22 14 63 46 40 48 49 48 62 42 25 23 26 40 77 72 88 100 100 100 100 97 100
10 9 9 10 8 7 6 8 6 9 40 67 100 100 98 53 5 7 7 5 5 30 6 8 12 70 42 13 39 48 34 39 38 46 62 63 56 43 59 89 97 60 100 84 91 100 88 83 100
12 11 10 10 9 8 9 9 8 6 28 65 99 98 100 19 6 6 6 5 5 5 6 88 44 66 62 29 21 44 31 33 38 44 40 58 96 100 100 77 78 99 100 97 100 100 95 100 90
13 12 12 10 8 8 10 10 10 10 8 9 44 81 95 6 7 7 6 4 4 4 55 62 31 59 72 53 21 33 37 34 33 38 29 42 59 64 64 99 93 100 100 98 94 100 100 100 100
14 13 11 10 9 8 8 8 11 10 8 10 16 100 100 8 7 7 5 4 4 5 5 5 6 31 98 63 53 32 40 31 34 39 29 43 48 80 65 62 93 71 100 100 100 93 87 91 100
12 10 9 8 7 7 6 7 7 8 8 8 35 99 69 15 5 6 5 4 4 5 6 5 5 7 90 94 74 61 42 40 32 31 33 36 55 59 72 90 86 97 100 98 88 99 91 96 100
9 8 7 6 7 8 7 7 6 6 6 6 8 12 7 8 5 6 5 4 4 5 6 5 5 6 21 100 81 82 69 37 36 32 29 30 38 55 42 63 66 72 97 100 98 89 100 88 84
9 8 8 8 7 9 8 8 6 7 6 6 7 11 8 6 6 6 5 5 5 5 6 6 5 6 7 43 98 98 81 64 30 53 32 31 32 41 34 38 55 63 79 100 100 98 99 100 82
12 10 10 9 9 10 8 8 10 9 6 17 13 21 8 7 7 6 5 5 6 6 7 7 6 6 6 15 73 100 84 73 83 37 37 29 36 38 38 30 32 27 37 61 80 98 100 100 100
12 13 12 11 10 10 8 8 9 10 24 47 30 25 26 7 6 6 6 6 6 6 7 7 7 7 6 10 32 72 93 69 90 91 78 62 37 34 42 41 35 31 36 50 56 92 98 100 87
12 13 13 11 11 11 8 8 6 11 90 64 54 27 22 8 7 6 6 7 6 6 6 6 6 7 7 7 8 18 74 77 93 99 99 100 57 47 40 54 76 48 47 44 46 55 60 50 96
11 11 10 11 11 11 9 7 10 10 11 39 100 43 7 8 7 6 7 7 6 6 6 6 6 6 7 8 7 6 15 62 67 91 100 100 67 56 52 42 56 55 52 52 68 65 74 67 84
10 11 10 10 10 11 9 8 10 11 16 14 16 19 13 8 8 7 8 7 7 7 6 7 6 6 6 5 6 7 7 10 58 73 83 100 93 91 93 100 100 95 62 40 78 78 88 51 76
12 10 10 10 10 12 10 10 11 12 90 49 62 35 26 9 8 8 8 8 8 7 7 7 8 7 6 5 5 5 5 6 16 32 75 88 100 99 93 100 97 96 84 85 99 100 100 85 71
15 12 11 9 10 11 10 10 12 13 18 37 53 27 47 16 8 8 8 9 9 9 8 8 8 6 6 7 7 8 7 7 6 8 19 29 62 100 100 100 100 89 45 77 100 100 100 89 86
15 18 13 10 11 9 8 9 13 14 40 77 54 26 46 14 8 9 10 9 9 9 8 8 7 8 7 8 16 10 10 16 16 13 11 11 19 55 96 98 95 81 64 78 96 82 89 69 84

GFSSGP_250_rhum_285.txt.gz
RH
100 100 100 100 100 100 99 100 65 69 54 66 53 84 74 63 14 19 26 40 52 32 53 59 24 63 59 42 43 38 53 58 57 48 50 65 50 57 70 58 66 52 53 72 69 61 60 50 82
98 95 82 88 36 69 72 96 88 60 61 79 68 92 80 48 11 22 16 23 56 33 45 55 29 45 57 57 39 38 54 48 52 62 72 68 64 51 51 63 54 44 56 58 57 50 43 44 58
13 8 7 12 24 100 90 99 90 72 51 61 55 66 97 66 14 24 12 20 61 32 39 53 40 31 41 34 33 38 32 35 60 67 63 60 68 75 80 60 70 62 70 58 49 45 72 100 98
9 8 6 16 42 99 100 100 100 83 37 50 85 67 86 86 40 29 12 18 44 41 34 52 39 22 33 26 30 35 30 26 36 54 36 55 65 50 49 47 44 50 61 61 69 76 66 76 70
6 6 5 6 38 23 71 67 100 97 40 51 52 79 78 90 16 17 13 56 27 48 29 44 48 19 24 24 31 29 21 27 26 49 43 37 51 49 42 44 44 46 51 46 49 54 76 88 82
5 6 8 10 26 72 61 54 100 100 44 57 61 68 100 83 17 11 16 67 40 38 44 40 46 34 20 20 25 24 22 28 29 42 48 45 54 51 49 44 50 64 69 68 51 50 71 83 87
6 6 6 7 10 43 26 23 42 56 23 91 71 75 90 71 25 10 12 16 61 24 65 34 44 34 25 27 22 26 24 28 30 34 50 34 35 46 44 40 44 63 76 81 54 53 70 73 76
6 6 5 6 9 6 16 15 56 34 19 94 82 82 100 48 32 9 13 13 15 13 53 26 46 49 40 28 24 25 25 26 35 37 46 41 32 36 43 43 38 69 81 61 68 85 100 100 44
6 5 5 6 5 31 18 23 26 20 7 20 100 74 100 90 48 17 9 15 7 10 13 69 38 63 82 75 78 61 31 33 41 48 38 35 39 45 51 46 44 49 86 81 100 94 91 100 68
5 6 5 5 8 72 18 8 18 8 16 93 100 75 97 67 86 72 11 24 8 7 11 93 15 48 70 65 76 97 91 28 56 66 44 46 70 59 59 57 74 82 79 100 79 97 91 64 69
6 5 5 6 7 19 9 8 8 8 27 70 73 47 57 58 79 88 20 18 11 7 7 46 42 22 69 75 88 84 81 20 50 66 100 74 63 88 100 96 75 74 100 96 78 77 85 98 98
6 6 6 6 6 8 9 9 8 8 12 54 73 100 96 72 71 68 8 10 21 15 7 19 65 20 47 65 81 70 83 39 20 64 93 92 95 61 65 98 60 90 100 69 55 64 95 100 71
6 6 6 7 8 8 16 9 8 9 9 58 100 100 100 81 54 97 45 9 18 22 20 7 10 68 16 44 63 67 63 49 19 38 73 94 73 75 53 38 44 54 100 94 54 76 100 100 100
7 7 6 6 9 9 12 10 8 9 8 11 18 88 100 100 76 92 78 20 24 34 30 8 6 22 34 22 59 65 72 62 29 33 40 48 45 34 29 26 29 41 94 84 60 67 80 96 95
7 8 8 8 9 11 11 10 8 7 7 14 12 24 88 100 79 79 54 13 40 46 47 14 9 15 35 13 44 77 56 72 56 36 30 25 26 21 22 26 28 81 100 91 76 83 60 95 100
7 8 8 9 12 11 12 12 13 11 9 8 10 11 10 11 32 86 44 17 41 47 60 44 35 17 38 12 26 77 50 67 59 56 34 25 19 25 28 31 36 91 90 78 24 74 51 66 54
9 8 9 10 11 10 10 11 11 9 8 9 10 11 11 10 83 57 21 17 49 66 73 97 90 49 38 24 20 66 45 47 51 56 47 34 28 30 63 76 77 92 95 64 69 90 47 84 71
12 12 11 10 11 11 10 12 11 9 8 7 8 9 10 10 46 60 14 8 29 56 61 79 80 79 41 64 16 44 51 49 43 59 77 72 53 39 82 68 100 100 89 42 66 46 77 60 46
16 17 14 14 14 15 12 11 9 8 8 6 6 7 7 8 11 25 7 9 20 33 72 58 80 82 61 70 44 16 54 54 42 46 74 91 96 100 82 61 88 71 67 51 45 38 38 46 62
18 19 17 16 15 13 10 8 8 8 8 6 7 6 6 6 8 8 10 25 6 18 10 57 57 83 78 65 76 20 21 55 48 41 57 69 93 98 68 51 66 100 50 77 73 77 66 81 69
17 15 14 13 12 10 9 7 8 10 9 8 9 7 6 6 8 8 9 11 7 5 5 5 10 47 52 59 78 34 20 36 61 45 52 55 70 100 82 53 66 70 51 38 59 66 81 78 67
11 10 10 10 10 10 10 8 9 10 10 10 9 8 7 6 7 17 8 6 6 5 5 6 6 6 46 72 77 84 58 30 33 55 39 40 53 76 87 83 62 56 39 46 69 74 82 67 81
10 9 9 10 11 10 7 9 9 11 11 12 9 8 9 7 14 25 7 5 6 6 5 5 6 6 7 45 89 95 84 79 49 30 48 44 42 60 72 84 75 80 65 63 91 87 69 90 58
10 9 9 10 11 9 7 9 8 12 13 14 10 10 10 10 28 37 9 4 8 6 5 5 5 6 7 12 60 84 98 88 82 65 29 37 37 37 52 75 72 71 67 67 64 81 74 82 84
10 10 10 12 11 8 8 8 9 10 12 12 11 9 14 14 40 22 12 5 8 6 6 6 5 5 30 55 14 15 46 91 90 59 73 49 32 36 32 38 47 43 53 61 72 52 74 99 84
12 11 11 10 10 9 9 10 10 9 12 11 11 10 10 12 13 24 18 6 9 6 5 5 5 6 6 31 44 27 40 53 85 29 38 65 58 36 36 43 35 59 65 70 82 69 56 76 86
11 12 12 11 10 9 8 10 10 9 11 11 10 9 10 17 17 16 22 15 9 7 5 5 6 5 6 6 37 27 28 28 56 62 26 35 56 59 48 48 30 38 86 84 96 85 68 46 56
12 11 10 10 9 10 10 9 11 10 11 11 11 11 10 9 12 16 12 20 9 6 6 5 6 5 5 5 25 36 16 12 9 30 44 51 41 50 65 69 48 80 91 92 100 72 54 58 43
11 11 10 8 8 9 11 10 9 9 10 10 13 11 11 10 14 12 17 38 9 8 6 5 5 5 6 6 5 6 8 9 10 8 5 6 30 17 47 100 100 79 77 100 100 92 82 69 60
11 11 9 9 9 9 10 14 9 10 10 12 13 12 11 10 11 12 44 32 28 14 6 5 6 7 7 6 6 10 13 11 13 12 10 11 9 7 7 81 100 100 100 100 89 72 81 87 84

GFSSGP_250_rhum_291.txt.gz
RH
23 14 9 6 9 16 27 19 62 38 87 55 80 92 86 39 21 14 53 45 46 34 35 27 30 33 43 52 53 58 44 40 38 42 52 62 80 84 70 65 74 80 94 99 100 94 83 88 73
10 22 12 7 8 16 18 51 42 45 40 61 72 50 85 31 16 18 52 40 37 39 44 36 29 28 30 62 51 48 53 46 45 42 60 83 99 99 95 69 93 97 77 54 64 72 88 70 80
9 9 8 7 7 21 8 36 31 49 44 60 88 45 59 28 13 18 30 38 30 46 35 41 40 28 27 29 53 54 35 56 53 53 65 100 84 99 98 99 100 74 53 79 92 78 89 67 60
9 8 8 7 6 7 8 25 70 60 45 71 46 53 53 35 13 16 33 31 35 45 34 32 34 32 24 31 30 42 35 36 41 39 60 53 58 80 58 100 100 90 84 58 68 63 61 55 72
9 8 8 7 6 6 7 22 67 44 38 36 28 73 75 69 40 22 13 34 49 32 46 29 28 26 25 25 25 29 40 35 34 38 45 68 66 76 67 100 98 68 67 72 65 64 72 94 74
11 8 8 7 6 6 8 14 60 24 36 33 38 55 99 88 98 91 14 22 39 45 41 40 29 27 26 28 22 26 38 41 36 35 43 79 91 75 71 81 88 90 66 75 77 74 69 94 100
6 6 6 6 7 6 6 7 11 23 19 28 25 69 87 61 98 97 12 18 12 44 31 47 29 26 25 23 29 25 29 37 43 31 34 46 85 99 88 53 59 57 55 74 84 74 78 79 89
8 7 6 6 6 7 7 11 9 9 13 24 33 62 78 84 69 50 12 16 8 15 56 35 42 21 22 21 42 30 29 31 27 27 33 60 62 93 100 94 62 56 84 100 75 52 55 72 80
7 6 6 7 7 8 7 7 10 8 10 10 18 80 78 78 78 67 17 22 13 8 19 34 40 44 24 31 58 36 34 29 37 26 30 38 52 96 88 94 100 100 93 73 65 64 59 55 72
6 6 6 7 8 14 8 8 11 9 9 8 15 84 85 92 96 82 32 22 24 18 8 59 37 56 36 29 75 30 27 29 34 27 32 34 42 63 100 100 98 100 85 64 81 94 87 68 56
6 6 6 8 8 8 8 10 12 10 9 11 11 18 58 92 100 96 97 28 18 28 25 10 71 49 78 64 79 94 20 45 28 29 31 34 44 59 68 100 100 100 90 65 88 88 93 100 100
6 6 6 8 8 8 8 11 12 12 11 12 11 14 11 37 98 100 91 85 41 38 28 21 26 48 55 58 63 86 29 36 39 34 50 42 49 45 46 62 61 82 100 79 92 87 95 92 100
6 6 7 9 9 8 10 12 13 13 13 12 15 11 13 11 45 53 44 80 61 73 51 28 14 53 31 46 62 80 62 28 53 35 55 55 66 68 52 67 67 63 90 80 61 50 62 71 83
6 7 8 7 8 9 12 13 16 16 15 13 14 12 11 12 11 10 32 65 70 45 45 48 28 19 69 30 58 74 78 42 24 56 96 61 52 71 80 46 67 54 74 77 78 63 77 67 62
6 6 6 7 8 11 11 15 16 14 14 14 12 10 9 11 11 11 46 46 29 45 77 57 30 9 31 60 42 60 74 53 19 31 57 82 72 41 38 62 46 64 48 51 62 39 88 100 100
6 5 7 8 10 13 15 15 16 16 15 13 11 9 8 8 9 10 10 49 61 20 50 80 59 25 9 52 30 40 68 54 39 27 38 43 31 27 26 33 42 75 45 38 34 85 64 93 58
5 6 8 14 14 19 18 16 16 17 14 11 10 9 8 6 7 8 9 22 25 10 36 99 72 46 10 43 24 25 62 55 47 34 33 33 29 20 20 24 52 49 39 37 34 38 36 48 71
6 7 8 16 21 22 19 18 19 16 13 11 9 9 10 8 6 6 7 9 10 16 44 96 82 78 13 35 37 22 58 55 40 41 34 23 22 20 19 25 31 66 41 37 40 62 36 42 54
7 7 10 17 15 17 17 18 16 14 12 10 9 9 9 9 8 6 7 10 13 10 16 51 100 93 94 30 62 23 30 60 49 40 38 27 22 27 32 46 43 39 54 42 43 41 33 34 46
7 7 9 10 14 14 12 13 13 12 11 10 10 9 9 9 9 7 7 8 11 13 8 25 66 96 100 77 48 40 20 46 50 39 40 43 30 35 39 55 51 60 58 48 41 41 47 53 58
7 7 9 8 10 12 9 9 11 11 12 10 10 9 9 9 8 9 8 8 11 7 6 7 37 72 97 94 75 63 54 21 49 45 39 50 46 56 49 66 54 68 60 57 54 50 54 60 58
8 9 8 9 10 10 9 8 10 11 10 9 9 10 10 9 8 9 9 17 16 7 6 6 7 43 89 100 87 62 70 39 25 49 45 42 57 69 86 85 69 67 58 48 53 55 49 53 59
7 9 9 10 11 9 9 12 8 12 10 8 8 11 10 10 10 9 10 14 25 9 6 6 12 8 48 84 100 98 67 69 27 28 51 38 45 64 71 74 72 56 65 64 75 54 49 51 71
6 8 10 10 10 10 8 10 8 10 12 9 8 8 10 9 9 9 11 21 32 21 6 6 6 21 11 16 75 85 77 58 58 25 28 45 40 43 52 48 55 60 52 54 53 60 62 67 63
6 8 11 10 10 12 9 10 8 10 10 11 9 8 8 8 9 9 10 47 45 35 8 6 6 6 8 8 15 51 69 87 68 55 52 40 31 41 40 39 39 44 49 56 56 57 53 59 57
8 9 11 12 11 11 11 11 10 10 10 10 9 9 9 9 9 10 10 10 16 20 15 7 5 6 7 9 15 15 35 48 61 54 51 55 57 42 30 34 36 45 46 46 44 46 49 91 97
9 10 10 11 11 12 12 13 11 10 10 10 10 10 9 9 8 9 10 10 9 12 17 10 7 8 8 7 13 39 49 35 38 58 63 62 60 60 54 40 30 33 30 34 31 57 67 100 100
9 10 10 10 11 12 12 11 12 10 10 10 11 10 9 9 9 10 10 10 9 11 12 14 8 7 9 11 9 11 51 60 57 57 60 40 46 62 80 72 59 56 38 52 35 40 64 100 100
8 9 8 9 9 10 12 10 12 10 10 10 10 9 10 9 9 10 9 9 9 9 12 13 19 7 7 9 10 9 10 57 73 76 70 68 49 49 76 92 98 78 98 63 50 31 78 97 99
7 8 8 8 8 9 10 13 12 10 10 11 11 10 8 8 9 9 11 10 9 8 10 11 23 8 7 8 9 9 12 30 69 74 52 48 55 49 53 89 100 100 75 89 64 42 46 82 100